TUI2EM EDDV-LGIR

Flight info

Callsign TUI2EM
Flight time N/A
Altitude 39000
Route POVEL3Y POVEL Z94 GALMA M736 RELKO DCT ALOSO DCT ABERU DCT ARMUT DCT LAMSI DCT RADLY DCT PODET DCT KOMAR DCT EDALA DCT GACMO DCT POD DCT PINDO UL607 GIVIS T514 XAVIS
Aircraft B737/M-SDE2E3FGHIRWXY/LB1

Departure

Time N/A
Airport Hannover Airport (EDDV)

Arrival

Time 2026-05-05 14:26
Airport Heraklion International Nikos Kazantzakis Airport (LGIR)
Time Latitude Longitude Altitude Speed Heading
2026-05-05 13:22 41.35168 20.19422 39093 ft 484 kts 150°
2026-05-05 13:23 41.29544 20.24367 39086 ft 485 kts 149°
2026-05-05 13:23 41.24014 20.29259 39096 ft 483 kts 149°
2026-05-05 13:24 41.18401 20.34227 39086 ft 484 kts 149°
2026-05-05 13:24 41.12796 20.39181 39086 ft 484 kts 149°
2026-05-05 13:25 41.07185 20.44128 39088 ft 484 kts 149°
2026-05-05 13:25 41.01581 20.49058 39089 ft 483 kts 149°
2026-05-05 13:26 40.96004 20.53952 39093 ft 484 kts 149°
2026-05-05 13:26 40.90389 20.58871 39089 ft 484 kts 149°
2026-05-05 13:27 40.84770 20.63783 39084 ft 484 kts 149°
2026-05-05 13:27 40.79148 20.68688 39073 ft 484 kts 149°
2026-05-05 13:28 40.73528 20.73581 39078 ft 483 kts 149°
2026-05-05 13:28 40.67916 20.78457 39070 ft 483 kts 149°
2026-05-05 13:29 40.62327 20.83303 39081 ft 484 kts 149°
2026-05-05 13:29 40.56690 20.88182 39067 ft 485 kts 149°
2026-05-05 13:30 40.51037 20.93066 39077 ft 486 kts 149°
2026-05-05 13:30 40.45544 20.98271 39065 ft 489 kts 141°
2026-05-05 13:31 40.40442 21.04227 39059 ft 491 kts 140°
2026-05-05 13:31 40.35373 21.10227 39065 ft 491 kts 140°
2026-05-05 13:32 40.30265 21.16156 39067 ft 491 kts 140°
2026-05-05 13:32 40.25116 21.22061 39066 ft 492 kts 141°
2026-05-05 13:33 40.19997 21.27913 39060 ft 492 kts 141°
2026-05-05 13:33 40.14839 21.33802 39058 ft 492 kts 141°
2026-05-05 13:34 40.09676 21.39689 39056 ft 492 kts 141°
2026-05-05 13:34 40.04518 21.45557 39056 ft 492 kts 141°
2026-05-05 13:35 39.99352 21.51425 39053 ft 492 kts 141°
2026-05-05 13:35 39.94191 21.57271 39054 ft 491 kts 141°
2026-05-05 13:36 39.89025 21.63103 39053 ft 491 kts 141°
2026-05-05 13:36 39.83864 21.68918 39052 ft 491 kts 141°
2026-05-05 13:37 39.78733 21.74689 39056 ft 491 kts 141°
2026-05-05 13:37 39.73560 21.80498 39051 ft 492 kts 141°
2026-05-05 13:38 39.68375 21.86309 39046 ft 492 kts 141°
2026-05-05 13:38 39.63187 21.92111 39034 ft 493 kts 141°
2026-05-05 13:39 39.57978 21.97924 39037 ft 492 kts 141°
2026-05-05 13:39 39.52787 22.03706 39038 ft 492 kts 141°
2026-05-05 13:40 39.47593 22.09478 39032 ft 492 kts 141°
2026-05-05 13:40 39.42413 22.15223 39036 ft 492 kts 141°
2026-05-05 13:41 39.37202 22.20992 39035 ft 493 kts 141°
2026-05-05 13:41 39.31990 22.26749 39037 ft 493 kts 141°
2026-05-05 13:42 39.26769 22.32504 39040 ft 494 kts 141°
2026-05-05 13:42 39.21566 22.38228 39050 ft 495 kts 141°
2026-05-05 13:43 39.16319 22.43989 39040 ft 495 kts 141°
2026-05-05 13:43 39.11071 22.49741 39046 ft 495 kts 141°
2026-05-05 13:44 39.06706 22.54514 39032 ft 496 kts 141°
2026-05-05 13:44 39.01437 22.60266 39032 ft 496 kts 141°
2026-05-05 13:45 38.96165 22.66009 39037 ft 496 kts 141°
2026-05-05 13:45 38.90895 22.71739 39039 ft 496 kts 141°
2026-05-05 13:46 38.85630 22.77452 39048 ft 495 kts 141°
2026-05-05 13:46 38.80399 22.83116 39044 ft 495 kts 140°
2026-05-05 13:47 38.75135 22.88806 39053 ft 495 kts 141°
2026-05-05 13:47 38.69865 22.94489 39052 ft 495 kts 141°
2026-05-05 13:48 38.64581 23.00178 39049 ft 495 kts 141°
2026-05-05 13:48 38.59302 23.05848 39047 ft 495 kts 141°
2026-05-05 13:49 38.54027 23.11504 39048 ft 495 kts 140°
2026-05-05 13:49 38.48785 23.17114 39045 ft 494 kts 140°
2026-05-05 13:50 38.43515 23.22742 39045 ft 494 kts 140°
2026-05-05 13:50 38.38230 23.28375 39055 ft 494 kts 140°
2026-05-05 13:51 38.32949 23.33994 39055 ft 495 kts 140°
2026-05-05 13:51 38.27653 23.39617 39049 ft 495 kts 141°
2026-05-05 13:52 38.22358 23.45230 39063 ft 496 kts 140°
2026-05-05 13:52 38.17042 23.50853 39058 ft 497 kts 140°
2026-05-05 13:53 38.12065 23.56100 39055 ft 497 kts 140°
2026-05-05 13:53 38.06774 23.61663 39045 ft 497 kts 140°
2026-05-05 13:54 38.01513 23.67190 39046 ft 496 kts 140°
2026-05-05 13:54 37.96198 23.72763 39047 ft 495 kts 141°
2026-05-05 13:55 37.90887 23.78322 39054 ft 495 kts 141°
2026-05-05 13:55 37.85995 23.84420 39068 ft 493 kts 129°
2026-05-05 13:56 37.81662 23.91076 39060 ft 492 kts 128°
2026-05-05 13:56 37.77294 23.97766 39053 ft 492 kts 129°
2026-05-05 13:57 37.72876 24.04391 39051 ft 492 kts 129°
2026-05-05 13:57 37.68505 24.10894 39048 ft 493 kts 129°
2026-05-05 13:58 37.64082 24.17466 39063 ft 493 kts 129°
2026-05-05 13:58 37.59630 24.24076 39064 ft 494 kts 129°
2026-05-05 13:59 37.54932 24.30403 39055 ft 496 kts 141°
2026-05-05 13:59 37.52141 24.32930 39047 ft 495 kts 149°
2026-05-05 14:00 37.46230 24.37485 38234 ft 495 kts 150°
2026-05-05 14:00 37.43294 24.39720 37776 ft 491 kts 150°
2026-05-05 14:00 37.40391 24.41948 37271 ft 488 kts 150°
2026-05-05 14:00 37.37501 24.44186 36795 ft 485 kts 149°
2026-05-05 14:01 37.34641 24.46415 36322 ft 482 kts 149°
2026-05-05 14:01 37.31801 24.48636 35882 ft 479 kts 149°
2026-05-05 14:01 37.29015 24.50816 35441 ft 477 kts 149°
2026-05-05 14:01 37.26206 24.53013 35007 ft 474 kts 149°
2026-05-05 14:02 37.23410 24.55197 34577 ft 472 kts 149°
2026-05-05 14:02 37.20620 24.57373 34155 ft 470 kts 149°
2026-05-05 14:02 37.17844 24.59535 33678 ft 468 kts 149°
2026-05-05 14:02 37.15220 24.61577 33223 ft 467 kts 149°
2026-05-05 14:03 37.12460 24.63723 32736 ft 465 kts 149°
2026-05-05 14:03 37.09714 24.65856 32286 ft 463 kts 149°
2026-05-05 14:03 37.07008 24.67956 31809 ft 462 kts 149°
2026-05-05 14:03 37.04281 24.70071 31372 ft 460 kts 149°
2026-05-05 14:04 37.01558 24.72182 30927 ft 459 kts 149°
2026-05-05 14:04 36.98849 24.74279 30493 ft 457 kts 149°
2026-05-05 14:04 36.96138 24.76378 30047 ft 455 kts 149°
2026-05-05 14:04 36.93443 24.78461 29545 ft 453 kts 149°
2026-05-05 14:05 36.90803 24.80501 29059 ft 451 kts 148°
2026-05-05 14:05 36.88142 24.82566 28572 ft 449 kts 148°
2026-05-05 14:05 36.85493 24.84624 28076 ft 446 kts 148°
2026-05-05 14:05 36.82864 24.86666 27611 ft 444 kts 148°
2026-05-05 14:06 36.80248 24.88697 27142 ft 442 kts 148°
2026-05-05 14:06 36.77646 24.90714 26688 ft 439 kts 148°
2026-05-05 14:06 36.75057 24.92719 26237 ft 437 kts 148°
2026-05-05 14:06 36.72482 24.94712 25802 ft 434 kts 148°
2026-05-05 14:07 36.69920 24.96691 25368 ft 432 kts 148°
2026-05-05 14:07 36.67368 24.98652 24943 ft 430 kts 149°
2026-05-05 14:07 36.64828 25.00597 24527 ft 427 kts 149°
2026-05-05 14:07 36.62293 25.02534 24124 ft 425 kts 149°
2026-05-05 14:08 36.59785 25.04449 23706 ft 423 kts 149°
2026-05-05 14:08 36.57279 25.06363 23220 ft 420 kts 149°
2026-05-05 14:08 36.54793 25.08261 22749 ft 418 kts 149°
2026-05-05 14:08 36.52316 25.10151 22275 ft 416 kts 149°
2026-05-05 14:09 36.49890 25.12001 21816 ft 413 kts 149°
2026-05-05 14:09 36.47446 25.13863 21358 ft 411 kts 149°
2026-05-05 14:09 36.45018 25.15713 20905 ft 408 kts 149°
2026-05-05 14:09 36.42604 25.17550 20463 ft 406 kts 149°
2026-05-05 14:10 36.40200 25.19378 20020 ft 403 kts 149°
2026-05-05 14:10 36.37821 25.21185 19594 ft 400 kts 149°
2026-05-05 14:10 36.35446 25.22989 19168 ft 398 kts 149°
2026-05-05 14:10 36.33092 25.24775 18738 ft 395 kts 149°
2026-05-05 14:11 36.30759 25.26544 18319 ft 393 kts 149°
2026-05-05 14:11 36.28430 25.28309 17839 ft 390 kts 149°
2026-05-05 14:11 36.26121 25.30056 17363 ft 388 kts 149°
2026-05-05 14:11 36.23825 25.31794 16913 ft 385 kts 149°
2026-05-05 14:12 36.21546 25.33518 16466 ft 382 kts 149°
2026-05-05 14:12 36.19279 25.35232 16015 ft 380 kts 149°
2026-05-05 14:12 36.17060 25.36907 15569 ft 377 kts 149°
2026-05-05 14:12 36.14827 25.38592 15136 ft 375 kts 149°
2026-05-05 14:13 36.12597 25.40238 14700 ft 372 kts 152°
2026-05-05 14:13 36.10222 25.41464 14267 ft 369 kts 162°
2026-05-05 14:13 36.07858 25.42412 13890 ft 365 kts 163°
2026-05-05 14:13 36.05447 25.43349 13463 ft 362 kts 164°
2026-05-05 14:14 36.03000 25.43932 13022 ft 357 kts 179°
2026-05-05 14:14 36.00546 25.43814 12652 ft 350 kts 186°
2026-05-05 14:14 35.98121 25.43588 12268 ft 347 kts 186°
2026-05-05 14:14 35.95718 25.43360 11888 ft 344 kts 186°
2026-05-05 14:15 35.93346 25.43140 11525 ft 341 kts 186°
2026-05-05 14:15 35.90982 25.42928 11152 ft 338 kts 186°
2026-05-05 14:15 35.88647 25.42724 10784 ft 336 kts 186°
2026-05-05 14:15 35.86323 25.42525 10423 ft 334 kts 186°
2026-05-05 14:16 35.84015 25.42329 10067 ft 331 kts 185°
2026-05-05 14:16 35.81753 25.42139 9685 ft 329 kts 185°
2026-05-05 14:16 35.79473 25.41948 9290 ft 327 kts 185°
2026-05-05 14:16 35.77205 25.41758 8897 ft 326 kts 185°
2026-05-05 14:17 35.74942 25.41569 8517 ft 324 kts 185°
2026-05-05 14:17 35.72695 25.41382 8122 ft 323 kts 185°
2026-05-05 14:17 35.70452 25.41195 7749 ft 322 kts 184°
2026-05-05 14:17 35.68224 25.41010 7380 ft 320 kts 184°
2026-05-05 14:18 35.66004 25.40826 7020 ft 319 kts 184°
2026-05-05 14:18 35.63789 25.40642 6659 ft 318 kts 184°
2026-05-05 14:18 35.61587 25.40459 6333 ft 316 kts 184°
2026-05-05 14:18 35.59416 25.40279 6000 ft 309 kts 184°
2026-05-05 14:19 35.57302 25.40105 5670 ft 307 kts 184°
2026-05-05 14:19 35.55170 25.39928 5340 ft 305 kts 184°
2026-05-05 14:19 35.53057 25.39752 5013 ft 303 kts 184°
2026-05-05 14:19 35.50958 25.39579 4682 ft 301 kts 185°
2026-05-05 14:20 35.48879 25.39407 4359 ft 298 kts 185°
2026-05-05 14:20 35.46817 25.39238 4026 ft 297 kts 186°
2026-05-05 14:20 35.44761 25.39359 3689 ft 297 kts 165°
2026-05-05 14:20 35.42898 25.40424 3391 ft 295 kts 151°
2026-05-05 14:21 35.41121 25.41668 3053 ft 294 kts 150°
2026-05-05 14:21 35.39282 25.42750 2706 ft 292 kts 167°
2026-05-05 14:21 35.37295 25.42757 2373 ft 285 kts 197°
2026-05-05 14:21 35.35567 25.41686 2082 ft 276 kts 222°
2026-05-05 14:22 35.34338 25.39984 2005 ft 260 kts 243°
2026-05-05 14:22 35.33554 25.38065 2038 ft 244 kts 248°
2026-05-05 14:22 35.32886 25.36222 1996 ft 229 kts 257°
2026-05-05 14:22 35.32821 25.34411 1990 ft 206 kts 278°
2026-05-05 14:23 35.32943 25.32736 1973 ft 189 kts 277°
2026-05-05 14:23 35.33051 25.31189 1995 ft 177 kts 278°
2026-05-05 14:23 35.33152 25.29747 1985 ft 160 kts 278°
2026-05-05 14:23 35.33247 25.28445 1786 ft 152 kts 279°
2026-05-05 14:24 35.33369 25.27224 1617 ft 134 kts 280°
2026-05-05 14:24 35.33434 25.26093 1407 ft 134 kts 279°
2026-05-05 14:24 35.33495 25.24962 1168 ft 134 kts 279°
2026-05-05 14:24 35.33564 25.23832 890 ft 130 kts 278°
2026-05-05 14:25 35.33630 25.22771 704 ft 120 kts 279°
2026-05-05 14:25 35.33702 25.21744 638 ft 124 kts 279°
2026-05-05 14:25 35.33783 25.20656 518 ft 128 kts 280°
2026-05-05 14:25 35.33844 25.19592 300 ft 119 kts 284°
2026-05-05 14:26 35.33940 25.18601 128 ft 113 kts 279°
2026-05-05 14:26 35.33998 25.17648 99 ft 114 kts 279°
2026-05-05 14:26 35.34040 25.16989 89 ft 26 kts 277°
2026-05-05 14:26 35.34041 25.16874 91 ft 7 kts 228°
2026-05-05 14:27 35.33998 25.16896 89 ft 9 kts 128°
2026-05-05 14:27 35.33959 25.16975 90 ft 12 kts 112°
2026-05-05 14:27 35.33941 25.17082 93 ft 13 kts 96°
2026-05-05 14:27 35.33935 25.17186 89 ft 13 kts 95°
2026-05-05 14:28 35.33927 25.17290 90 ft 10 kts 95°
2026-05-05 14:28 35.33921 25.17347 90 ft 6 kts 110°
2026-05-05 14:28 35.33890 25.17375 90 ft 6 kts 176°
2026-05-05 14:28 35.33845 25.17365 92 ft 7 kts 220°
2026-05-05 14:29 35.33845 25.17330 91 ft 4 kts 293°
2026-05-05 14:29 35.33861 25.17304 90 ft 3 kts 312°
2026-05-05 14:29 35.33871 25.17290 92 ft 0 kts 311°